[Iaude] MPEC Q79: 2020 OV7 [a=1.77,e=0.38,i=25.0,H=24.6]

mpec at marsden.cfa.harvard.edu mpec at marsden.cfa.harvard.edu
Tue Aug 18 15:25:42 EDT 2020


M.P.E.C. 2020-Q79                               Issued 2020 August 18, 19:24 UT

     The Minor Planet Electronic Circulars contain information on unusual
         minor planets and routine data on comets.  They are published
    on behalf of Division F of the International Astronomical Union by the
          Minor Planet Center, Smithsonian Astrophysical Observatory,
                          Cambridge, MA 02138, U.S.A.

             Prepared using the Tamkin Foundation Computer Network

                              MPC at CFA.HARVARD.EDU
            URL https://www.minorplanetcenter.net/    ISSN 1523-6714

                                    2020 OV7                                    


Observations:
     K20O07V* C2020 07 30.36307 22 49 03.13 +06 53 11.2          21.0 GVEQ079G96
     K20O07V  C2020 07 30.37030 22 49 06.19 +06 51 31.7          21.1 GVEQ079G96
     K20O07V  C2020 07 30.37750 22 49 09.24 +06 49 53.0                VEQ079G96
     K20O07V  C2020 07 30.38471 22 49 12.22 +06 48 15.4          21.4 GVEQ079G96
     K20O07V  C2020 07 30.42538 22 49 29.26 +06 38 59.1          20.8 GVEQ079G96
     K20O07V  C2020 07 30.47724 22 49 51.09 +06 27 08.2          20.9 GVEQ079G96
     K20O07V  C2020 07 30.47921 22 49 51.93 +06 26 41.4          21.6 GVEQ079G96
     K20O07V  C2020 07 30.48117 22 49 52.78 +06 26 14.5          20.8 GVEQ079G96
     K20O07V pC2020 07 30.98296122 53 41.87 +04 30 29.1          21.0 GVEQ079L01
     K20O07V pC2020 07 30.98601222 53 43.13 +04 29 46.4          21.2 GVEQ079L01
     K20O07V pC2020 07 30.98906322 53 44.45 +04 29 04.7          21.3 GVEQ079L01
     K20O07V  C2020 07 31.36523 22 56 33.01 +03 01 41.2          20.8 GVEQ079I52
     K20O07V  C2020 07 31.37027 22 56 35.14 +03 00 31.5          21.8 GVEQ079I52
     K20O07V  C2020 07 31.38034 22 56 39.33 +02 58 09.1                VEQ079I52
     K20O07V  C2020 08 08.40973 23 55 15.80 -26 43 33.5          21.4 GVEQ079G96
     K20O07V  C2020 08 08.41217 23 55 16.66 -26 44 01.9          21.6 GVEQ079G96

Observer details:
G96 Mt. Lemmon Survey.  Observer T. A. Pruyne.  Measurers E. J. Christensen,
    G. A. Farneth, D. C. Fuls, A. R. Gibbs, A. D. Grauer, H. Groeller, R. A.
    Kowalski, S. M. Larson, G. J. Leonard, T. A. Pruyne, D. Rankin, R. L.
    Seaman, F. C. Shelly, K. W. Wierzchos, B. Gray.  1.5-m reflector + 10K
    CCD.
I52 Steward Observatory, Mt. Lemmon Station.  Observer R. A. Kowalski.
    Measurers E. J. Christensen, G. A. Farneth, D. C. Fuls, A. R. Gibbs, A. D.
    Grauer, H. Groeller, R. A. Kowalski, S. M. Larson, G. J. Leonard, T. A.
    Pruyne, D. Rankin, R. L. Seaman, F. C. Shelly, K. W. Wierzchos.  1.0-m
    reflector + CCD.
L01 Visnjan Observatory, Tican.  Observer K. Korlevic.  1.0-m f/2.9 reflector
    + CCD.

Orbital elements:
2020 OV7                                                 Earth MOID = 0.0874 AU
Epoch 2020 May 31.0 TT = JDT 2459000.5                  Veres
M 337.94473              (2000.0)            P               Q
n   0.41825956     Peri.  169.23059     +0.55524243     +0.77330475
a   1.7708107      Node   133.62697     -0.79104018     +0.60469224
e   0.3806716      Incl.   25.01770     -0.25682928     -0.19064902
P   2.36           H   24.6           G   0.15           U   8
Residuals in seconds of arc
200730 G96  0.2-  0.7+    200730 G96  0.1-  0.1+    200731 I52  0.4+  0.6+
200730 G96  0.2+  0.2-    200730 G96  0.2+  0.1+    200731 I52  0.4-  0.4-
200730 G96  0.6+  0.7-    200730 L01  0.2+  0.1+    200808 G96  0.5+  0.7+
200730 G96  0.1-  0.2+    200730 L01  0.4-  0.2-    200808 G96  0.5-  0.7-
200730 G96  0.3-  0.1-    200730 L01  0.2-  0.5+
200730 G96  0.2-  0.2-    200731 I52  0.3+  0.4-

Ephemeris:
2020 OV7                 a,e,i = 1.77, 0.38, 25                  q = 1.0967
Date    TT    R. A. (2000) Decl.     Delta      r    Elong.  Phase     V
2020 07 19    21 30 27.8 +37 11 23   0.1558  1.0974   117.7    55.1    22.8
...
2020 08 03    23 16 14.1 -07 21 28   0.1068  1.1026   143.7    33.0    21.3
...
2020 08 11    00 12 29.7 -33 55 44   0.1308  1.1138   137.7    37.7    21.9
...
2020 08 17    00 47 10.1 -45 36 01   0.1648  1.1259   130.2    43.4    22.6
2020 08 18    00 52 08.9 -46 59 46   0.1711  1.1281   129.1    44.1    22.7
2020 08 19    00 56 53.5 -48 16 09   0.1777  1.1305   128.2    44.7    22.8
...
2020 08 25    01 20 29.0 -53 53 45   0.2190  1.1463   123.5    47.3    23.4
...
2020 09 02    01 40 11.4 -57 58 24   0.2772  1.1715   119.7    48.4    24.0
...
2020 09 17    01 50 22.0 -60 34 29   0.3885  1.2289   116.5    47.0    24.8

M. P. C. Staff               (C) Copyright 2020 MPC           M.P.E.C. 2020-Q79




More information about the Iaude mailing list